Location: Houhaj�rvi
(61.2833°N, 23.0000°E)
Time: 17:19:29
(UTC+00:00)

Cosmos 1943 Rocket - Pass Details

Date: 27 February 2020
Orbit: 814 x 842 km, 71.0° (Epoch: 31 March)

Event Time Altitude Azimuth Distance (km) Brightness Sun altitude
Rises 21:27:04 0° 298° (WNW) 3,358 5.9 -35.3°
Reaches altitude 10° 21:29:46 10° 308° (NW) 2,422 5.2 -35.4°
Enters shadow 21:34:33 32° 8° (N) 1,375 3.6 -35.6°
